Regional Weather Roundup
Issued by NWS Bismarck, ND

Home | Current Version | Previous Version | Text Only | Print | Product List | Glossary On
Versions: 1 2 3 4 5 6 7 8 9 10 11 12 13 14 15 16 17 18 19 20 21 22 23 24 25 26 27 28 29 30 31 32 33 34 35 36 37 38 39 40 41 42 43 44 45 46 47 48 49 50
000
ASUS43 KBIS 052210
RWRBIS

NWR BROADCAST TEXT
NATIONAL WEATHER SERVICE BISMARCK ND
500 PM CDT THU MAY 05 2016

NOTE: "FAIR" INDICATES FEW OR NO CLOUDS BELOW 12,000 FEET WITH NO
SIGNIFICANT WEATHER AND/OR OBSTRUCTIONS TO VISIBILITY.


CITY           SKY/WX    TMP DP  RH WIND       PRES   REMARKS
WILLISTON      MOSUNNY   87  36  16 SW10      29.77F
MINOT          SUNNY     94  34  12 W7G22     29.74F
MINOT AFB      SUNNY     90  37  15 SW8G20    29.72F
BISMARCK       SUNNY     88  45  22 SW7       29.80F
DICKINSON      SUNNY     84  31  14 SW8       29.81F
GARRISON         N/A     88  39  17 SW12      29.78F
HETTINGER ARPT SUNNY     83  41  22 S5        29.86F
JAMESTOWN      SUNNY     87  41  19 SW12G24   29.79F
BEACH          FAIR      86  32  14 SW10      29.85F
CARRINGTON     FAIR      88  39  18 SW17G24   29.81F
HAZEN            N/A     86  37  17 SW9       29.80F
LINTON         FAIR      88  57  35 SW15G23   29.83F
MANDAN         FAIR      84  41  21 CALM      29.82F
OAKES            N/A    N/A N/A N/A MISG        N/A
RUGBY          FAIR      90  37  15 SW17G25   29.75F
STANLEY        FAIR      86  36  16 SW9G15    29.80F
TIOGA          FAIR      86  36  16 SW12G22   29.82F
WATFORD CITY   FAIR      86  37  17 SW9       29.79F
$$

CITY           SKY/WX    TMP DP  RH WIND       PRES   REMARKS
GRAND FORKS    MOSUNNY   92  39  15 SW20      29.73F
GRAND FORKS AF SUNNY     91  37  15 W14G31    29.74F
DEVILS LAKE    SUNNY     87  42  20 SW9       29.77F
FARGO          SUNNY     90  34  13 SW16      29.78F
CANDO          FAIR      90  39  17 SW12G23   29.77F
CAVALIER       FAIR      91  37  15 W12       29.69F
GRAFTON        FAIR      90  45  20 W16G24    29.72F
GWINNER        FAIR      90  37  15 SW18      29.83F
LANGDON        FAIR      90  37  15 SW13G23   29.75F
ROLLA            N/A     90  37  15 W12       29.76F
WALHALLA       FAIR      91  39  16 SW10G18   29.69F
$$

CITY           SKY/WX    TMP DP  RH WIND       PRES   REMARKS
ABERDEEN       SUNNY     89  37  16 SW15G26   29.85F
MOBRIDGE         N/A     88  32  13 S17       29.80F
BUFFALO          N/A     86  37  17 W5        29.81F
RAPID CITY     CLOUDY    82  46  28 SE10      29.88F
GLASGOW        CLOUDY    85  39  19 VRB5      29.78F
SIDNEY         CLOUDY    88  39  18 S12       29.77F
WOLF POINT     MOSUNNY   88  43  20 W12       29.77F
GLENDIVE       MOSUNNY   90  37  15 SW14G20   29.81F
MILES CITY     CLOUDY    87  39  18 W10       29.81F
BAKER          CLOUDY    84  36  18 S9        29.85F
$$

CITY           SKY/WX    TMP DP  RH WIND       PRES   REMARKS
BILLINGS       MOSUNNY   84  31  14 CALM      29.87F
GREAT FALLS    CLOUDY    78  40  25 NW9       29.86F
REGINA         PTSUNNY   90  39  17 NW20      29.70S
ESTEVAN        CLOUDY    88  41  19 SW15G23   29.71F
$$




USA.gov is the U.S. government's official web portal to all federal, state and local government web resources and services.